Wind_Speed
30 30 29 28 27 26 25 25 24 24 24 23 23 23 23 23 23 22 22 23 23 23 23 23 23 24 24 24 24 24 25 25 25 25 26 26 26 26 26 27 27 27 28
31 30 30 30 29 28 27 27 26 25 25 25 25 25 25 25 25 24 24 24 24 24 24 25 25 25 26 26 26 26 27 27 27 27 28 28 28 29 29 29 29 29 29
32 32 31 30 29 29 29 29 28 27 27 26 27 27 27 26 27 27 26 26 26 27 27 27 27 27 28 28 28 28 29 29 30 30 31 31 31 31 32 32 32 32 32
33 33 32 31 30 30 30 30 30 29 28 28 28 28 28 28 28 28 28 28 28 29 29 29 30 30 30 30 30 31 31 32 32 33 34 34 34 34 34 33 34 34 34
32 33 33 31 31 31 31 31 31 30 30 29 29 29 30 30 30 30 30 30 30 31 31 31 32 32 32 32 33 33 34 34 35 35 36 36 36 36 36 35 36 36 36
33 33 33 32 32 32 32 32 32 31 30 30 31 31 31 32 32 32 32 33 33 32 32 33 34 34 34 35 35 35 36 36 37 37 37 37 37 38 38 38 39 39 39
35 35 35 34 33 32 32 33 33 32 32 31 32 32 33 34 34 34 35 35 34 34 34 35 36 36 37 37 37 37 38 39 39 39 39 39 39 40 41 41 41 41 41
35 35 35 34 34 34 34 34 34 33 34 34 34 34 34 35 36 36 37 37 37 37 37 38 38 39 39 39 39 39 40 40 40 41 41 41 41 42 42 43 43 43 42
35 35 35 35 35 36 36 36 36 36 36 36 37 37 38 37 37 37 37 38 39 39 40 40 40 41 41 41 41 41 41 42 42 43 43 43 43 44 44 44 44 45 44
36 35 36 36 36 37 37 37 37 38 38 38 39 39 39 39 38 38 38 39 40 40 41 42 42 42 42 43 43 43 43 44 44 45 45 45 46 46 46 46 46 46 46
37 37 37 37 37 38 38 39 39 40 40 40 40 41 41 41 40 40 40 41 41 42 43 43 44 44 44 44 44 44 45 45 46 46 47 47 47 47 47 47 47 48 48
37 38 38 38 39 39 40 40 40 40 41 41 42 42 42 42 42 42 42 42 42 43 44 44 45 45 45 45 45 45 46 47 48 48 49 49 49 48 48 49 49 49 49
37 38 38 39 40 41 42 42 42 41 41 42 43 43 43 43 43 44 44 44 44 44 45 45 45 45 46 46 47 47 48 49 50 50 50 50 50 49 49 49 50 50 50
38 38 39 40 41 42 42 43 43 43 43 44 44 44 44 45 45 46 46 46 46 46 47 47 48 48 47 48 49 50 50 51 51 52 51 51 51 50 50 51 51 51 51
38 39 40 40 41 42 42 44 45 45 45 45 45 45 46 46 47 47 48 48 48 48 48 48 49 50 50 51 51 52 52 53 53 53 53 52 52 52 52 53 53 53 52
37 38 40 41 42 43 44 45 46 46 46 46 47 48 47 48 49 49 48 48 49 50 50 50 51 52 54 55 54 54 53 54 54 55 55 55 55 55 54 54 54 55 55
38 39 39 41 42 43 44 45 46 47 47 47 48 49 49 49 50 50 49 50 50 51 51 51 52 53 55 55 55 55 55 55 55 56 56 56 56 56 56 56 56 56 56
38 39 39 40 42 42 42 44 45 46 46 48 48 49 49 50 50 50 50 50 51 52 53 53 53 54 55 55 55 55 55 55 55 55 56 56 57 57 57 57 57 57 57
37 38 38 39 40 41 42 44 45 45 46 46 47 48 49 49 49 50 51 51 52 53 54 54 55 55 55 54 55 55 54 54 56 55 56 56 57 58 58 58 58 57 57
37 38 39 40 40 41 42 43 45 45 46 46 47 48 48 48 49 50 51 52 53 53 54 54 54 54 55 54 54 54 55 56 56 55 55 55 55 55 56 57 57 57 57
38 39 40 41 41 42 43 44 44 45 45 45 46 48 48 48 49 49 50 51 52 53 54 54 54 54 54 54 53 54 54 54 55 55 54 54 54 54 54 54 54 54 54
38 39 39 41 41 41 41 42 43 44 44 45 45 46 47 48 49 49 50 51 52 53 53 53 53 53 53 53 53 53 53 53 53 53 54 54 54 53 53 52 52 52 52
39 40 41 41 41 42 42 43 43 45 45 46 45 45 46 47 48 49 49 50 50 51 52 52 52 52 53 53 53 53 53 53 52 52 53 53 53 53 53 52 52 51 51
39 40 41 41 41 41 42 42 43 44 45 45 46 46 47 47 48 48 49 49 49 50 51 51 51 52 52 52 52 51 51 51 51 52 52 51 51 51 51 52 52 52 51
40 40 41 42 42 42 42 42 43 44 44 45 45 46 46 47 47 48 49 49 50 51 51 51 51 51 51 51 51 50 50 51 50 50 51 51 50 50 50 51 52 53 52
40 40 41 42 42 42 42 43 43 44 44 45 45 45 46 46 47 48 49 49 50 50 51 51 51 51 51 50 50 50 51 51 51 50 50 50 50 49 48 49 51 52 52
Wind_Direction
243 243 242 243 245 246 248 251 254 256 260 264 266 267 268 269 270 271 274 277 278 279 280 282 283 283 283 283 284 284 284 285 285 286 287 287 288 288 289 289 290 291 291
242 243 242 244 245 247 249 251 254 256 259 262 264 267 268 268 269 271 273 275 278 279 279 281 281 282 282 282 282 282 283 284 284 285 286 286 286 286 287 288 288 289 290
241 243 243 244 246 247 249 252 254 257 258 261 264 267 267 268 268 269 272 274 276 278 279 280 281 281 281 282 282 282 282 283 284 285 285 285 286 286 286 286 287 287 288
241 241 243 245 247 249 251 253 256 257 258 261 264 266 267 267 268 270 272 274 276 278 279 279 279 280 280 280 281 282 283 283 284 284 284 284 285 285 284 285 285 286 287
243 243 244 245 247 248 250 253 255 258 259 261 264 266 267 268 270 271 273 274 276 277 279 279 279 280 280 280 281 282 282 283 284 285 285 284 284 284 283 283 283 284 285
243 245 245 246 247 249 251 253 255 258 260 262 264 266 268 270 271 272 273 275 276 277 278 279 280 279 279 280 281 281 281 283 284 285 284 284 284 283 283 283 283 283 284
245 246 247 248 249 251 253 254 256 258 261 264 266 268 269 271 272 273 274 275 275 276 277 279 280 281 280 280 280 281 282 283 284 284 285 284 284 283 282 282 282 282 283
247 249 251 251 252 253 255 256 258 261 264 266 268 270 271 273 274 274 274 275 275 275 276 278 279 280 281 281 280 281 281 282 283 284 284 283 283 282 282 281 281 281 281
249 252 252 252 255 257 258 258 261 263 265 267 268 270 271 273 276 275 276 276 276 276 277 278 279 280 280 280 280 281 281 282 282 283 283 283 282 282 282 281 281 280 280
251 252 253 254 256 257 259 261 262 264 266 267 269 271 273 273 275 276 277 277 277 276 277 278 279 278 279 280 281 281 281 281 282 282 283 283 282 282 282 281 280 280 280
251 252 253 255 256 258 259 261 263 264 266 268 270 271 273 274 275 276 276 277 276 276 277 278 279 278 278 279 280 280 280 281 282 282 283 283 283 282 281 281 280 280 280
253 254 254 256 258 259 260 262 264 265 266 268 269 271 272 273 275 276 275 276 276 276 277 278 278 277 278 279 279 280 281 281 282 282 283 283 282 282 281 281 281 281 281
254 255 256 257 259 260 262 263 265 266 266 267 268 270 272 273 274 276 276 276 275 276 276 276 277 278 278 279 279 280 281 282 282 282 283 282 282 281 281 280 281 281 280
254 257 258 259 261 262 264 265 266 267 266 267 268 270 272 273 274 275 276 276 276 276 276 276 277 278 279 279 280 281 282 282 282 282 282 282 281 281 281 281 281 281 280
257 258 260 261 263 265 266 266 266 267 267 267 268 270 272 274 274 275 276 276 277 276 276 277 277 277 278 280 280 281 281 282 282 282 281 281 281 281 281 281 281 281 280
261 262 263 264 266 266 267 266 267 267 267 268 269 269 272 275 275 276 276 277 277 278 278 278 279 278 279 280 281 281 281 281 281 281 281 281 281 281 281 281 281 281 280
263 263 264 266 268 268 268 267 267 267 268 269 270 270 272 274 275 276 276 277 277 278 279 279 279 279 280 281 281 282 282 282 282 281 281 281 281 281 281 281 282 281 281
264 266 267 267 269 269 268 268 269 270 271 271 272 272 273 274 275 276 277 277 278 278 279 279 280 280 282 282 283 283 283 283 282 282 281 281 281 282 282 282 282 282 281
265 267 267 268 269 269 270 270 271 272 273 273 272 273 274 275 276 277 277 278 278 279 280 280 281 282 282 283 283 283 283 283 283 283 283 282 282 282 282 283 282 281 281
268 268 269 271 272 273 273 272 273 274 274 274 274 275 275 276 277 278 279 279 279 280 280 281 282 282 283 283 283 283 283 283 283 284 284 284 284 284 284 283 282 281 280
269 270 272 273 275 275 275 275 275 276 276 275 276 276 276 277 278 278 279 279 280 280 281 281 282 282 283 284 284 284 283 283 283 283 284 284 284 285 285 284 284 283 282
271 271 274 275 277 277 277 278 277 276 277 278 277 277 277 278 278 279 279 280 281 281 281 282 282 283 283 283 284 283 283 284 284 283 283 283 284 285 285 285 285 284 283
273 274 276 278 279 278 278 278 278 278 278 279 279 278 279 279 279 279 280 281 281 282 283 283 283 283 283 283 284 284 284 284 284 284 284 283 283 284 284 285 285 285 284
276 277 278 279 279 280 279 278 279 279 279 279 279 279 280 280 280 280 281 282 283 284 284 284 284 284 284 284 284 285 285 284 284 285 285 285 284 284 284 284 285 285 286
278 278 278 279 279 280 280 279 279 279 279 280 280 280 279 280 280 281 282 283 283 284 284 284 285 285 285 285 285 285 285 285 285 285 285 286 285 284 284 285 285 285 285
279 279 279 279 279 280 280 280 280 280 280 280 280 280 281 281 281 282 283 283 284 284 284 284 285 285 284 284 285 285 285 285 285 285 286 286 286 285 284 285 285 285 285
Height
5815 5816 5818 5820 5822 5823 5824 5825 5826 5826 5827 5827 5827 5827 5827 5827 5827 5826 5826 5825 5825 5824 5823 5822 5821 5820 5819 5818 5817 5816 5814 5813 5812 5811 5810 5808 5807 5805 5804 5802 5801 5799 5798
5808 5810 5812 5814 5816 5817 5818 5819 5820 5821 5821 5822 5822 5822 5821 5821 5821 5821 5820 5820 5819 5818 5818 5817 5816 5815 5814 5812 5811 5810 5809 5807 5806 5805 5804 5802 5801 5799 5798 5796 5795 5793 5792
5802 5804 5806 5808 5809 5811 5812 5813 5814 5815 5815 5816 5816 5816 5816 5815 5815 5815 5814 5814 5813 5812 5812 5811 5810 5809 5807 5806 5805 5804 5802 5801 5800 5798 5797 5796 5794 5793 5791 5789 5788 5786 5785
5794 5797 5799 5801 5803 5804 5806 5807 5808 5809 5809 5810 5810 5810 5809 5809 5809 5808 5808 5807 5807 5806 5805 5804 5803 5802 5801 5800 5798 5797 5796 5794 5793 5791 5790 5788 5787 5785 5784 5782 5781 5779 5777
5787 5790 5792 5794 5796 5798 5799 5800 5801 5802 5802 5803 5803 5803 5803 5802 5802 5801 5801 5800 5800 5799 5798 5797 5796 5795 5794 5792 5791 5790 5788 5787 5785 5784 5782 5780 5779 5777 5776 5774 5772 5771 5769
5780 5783 5785 5787 5789 5791 5792 5793 5794 5795 5795 5796 5796 5796 5795 5795 5795 5794 5794 5793 5792 5791 5790 5789 5788 5787 5786 5785 5783 5782 5780 5779 5777 5775 5774 5772 5770 5769 5767 5765 5764 5762 5760
5773 5776 5778 5780 5782 5783 5785 5786 5786 5787 5788 5788 5788 5788 5788 5788 5787 5786 5786 5785 5784 5783 5782 5781 5780 5779 5778 5776 5775 5773 5772 5770 5768 5766 5765 5763 5761 5759 5758 5756 5754 5753 5751
5766 5768 5770 5772 5774 5775 5776 5777 5778 5779 5779 5780 5780 5780 5780 5780 5779 5778 5777 5776 5776 5775 5774 5772 5771 5770 5769 5767 5766 5764 5762 5761 5759 5757 5755 5753 5751 5749 5747 5746 5744 5742 5741
5758 5760 5762 5764 5765 5767 5768 5769 5770 5771 5771 5771 5771 5771 5771 5771 5770 5770 5768 5767 5766 5765 5764 5763 5762 5760 5759 5757 5756 5754 5753 5751 5749 5747 5744 5742 5740 5739 5737 5735 5733 5732 5730
5750 5752 5754 5756 5757 5759 5760 5761 5761 5762 5762 5762 5762 5761 5762 5761 5761 5760 5759 5758 5757 5756 5754 5753 5752 5750 5749 5747 5745 5744 5742 5740 5738 5736 5734 5731 5729 5727 5725 5724 5722 5720 5718
5743 5744 5746 5747 5749 5750 5751 5752 5752 5753 5753 5753 5753 5752 5752 5751 5750 5750 5750 5748 5747 5746 5744 5743 5741 5740 5738 5736 5735 5733 5731 5729 5727 5725 5723 5720 5718 5716 5714 5712 5710 5708 5706
5734 5736 5737 5739 5740 5741 5742 5742 5742 5742 5743 5743 5742 5742 5742 5741 5740 5740 5739 5738 5737 5736 5734 5732 5730 5729 5727 5725 5723 5722 5720 5717 5715 5713 5710 5708 5706 5704 5701 5699 5697 5695 5693
5726 5727 5728 5730 5730 5731 5731 5732 5732 5732 5732 5732 5732 5732 5731 5730 5730 5729 5728 5727 5726 5725 5723 5721 5719 5717 5715 5713 5712 5710 5708 5705 5703 5700 5698 5696 5693 5691 5689 5687 5684 5682 5680
5717 5718 5719 5720 5720 5721 5721 5721 5722 5722 5722 5721 5721 5721 5720 5719 5718 5718 5717 5716 5715 5713 5712 5710 5707 5705 5703 5701 5699 5697 5695 5692 5690 5687 5685 5682 5680 5678 5675 5673 5671 5669 5667
5708 5708 5709 5709 5710 5710 5710 5710 5711 5711 5710 5710 5710 5709 5709 5708 5707 5706 5704 5703 5702 5701 5700 5698 5695 5693 5690 5688 5686 5684 5681 5679 5676 5674 5671 5669 5666 5664 5662 5659 5657 5655 5653
5698 5699 5699 5699 5699 5699 5698 5699 5699 5699 5699 5698 5698 5698 5697 5696 5695 5693 5692 5690 5689 5688 5686 5685 5682 5679 5677 5674 5672 5669 5667 5665 5662 5659 5657 5655 5652 5650 5647 5645 5642 5640 5638
5688 5688 5688 5688 5688 5687 5687 5687 5687 5687 5686 5686 5685 5685 5684 5683 5682 5681 5679 5677 5676 5674 5672 5671 5668 5665 5663 5660 5658 5655 5652 5650 5647 5644 5642 5640 5637 5634 5632 5629 5627 5624 5622
5678 5678 5677 5677 5677 5676 5675 5675 5675 5674 5674 5674 5673 5673 5672 5670 5669 5668 5666 5664 5662 5660 5658 5657 5654 5651 5648 5646 5643 5640 5637 5634 5631 5629 5626 5624 5621 5618 5616 5613 5610 5608 5605
5667 5667 5667 5666 5665 5665 5664 5663 5663 5662 5661 5661 5660 5659 5658 5657 5656 5654 5652 5650 5648 5646 5643 5642 5640 5637 5634 5630 5627 5625 5622 5618 5615 5613 5610 5607 5605 5602 5599 5596 5593 5591 5588
5657 5656 5656 5655 5654 5653 5652 5651 5650 5649 5648 5648 5647 5646 5645 5643 5642 5641 5638 5636 5634 5632 5629 5627 5624 5622 5619 5615 5612 5609 5606 5603 5600 5596 5593 5591 5588 5585 5582 5579 5577 5574 5572
5646 5645 5645 5644 5642 5641 5640 5638 5638 5637 5636 5635 5633 5632 5631 5630 5628 5626 5624 5622 5620 5617 5614 5612 5609 5606 5603 5600 5597 5594 5590 5587 5584 5580 5577 5574 5572 5569 5566 5563 5560 5558 5555
5635 5634 5633 5632 5631 5629 5628 5626 5625 5624 5623 5621 5620 5619 5617 5616 5614 5612 5610 5608 5605 5602 5600 5597 5594 5591 5589 5585 5582 5578 5575 5572 5569 5567 5563 5559 5556 5553 5550 5548 5545 5542 5539
5625 5623 5622 5620 5619 5617 5616 5614 5613 5611 5610 5608 5606 5605 5604 5602 5600 5598 5596 5594 5591 5588 5585 5582 5580 5577 5574 5571 5568 5564 5560 5557 5554 5550 5547 5545 5541 5539 5535 5532 5529 5526 5524
5613 5612 5610 5608 5607 5605 5603 5602 5600 5599 5597 5595 5593 5592 5590 5589 5586 5585 5583 5580 5577 5574 5571 5568 5566 5563 5559 5555 5552 5549 5546 5543 5540 5536 5532 5530 5527 5524 5521 5517 5514 5511 5508
5602 5600 5599 5597 5595 5593 5591 5589 5588 5586 5584 5582 5580 5578 5576 5575 5573 5571 5569 5566 5564 5560 5557 5554 5551 5548 5544 5541 5538 5535 5532 5529 5526 5522 5518 5516 5513 5510 5507 5503 5499 5496 5493
5590 5589 5587 5585 5583 5581 5579 5577 5575 5573 5572 5570 5568 5565 5563 5561 5559 5556 5554 5552 5549 5546 5543 5540 5537 5534 5530 5527 5523 5520 5517 5514 5511 5509 5505 5502 5498 5495 5494 5491 5486 5481 5478